Total_Precipitation_Accumulation
1.23 1.30 1.35 1.45 1.53 1.60 1.60 1.59 1.58 1.58 1.61 1.62 1.69 1.73 1.75 1.81 1.99 2.14 2.04 2.27 2.37 2.38 2.18 2.10 2.03 2.02 2.03 1.85 1.88 1.99 2.05 2.27 2.22 1.78 1.68 1.78 1.89 1.80 1.87 1.82 1.75 1.79 1.62
1.17 1.34 1.42 1.56 1.60 1.53 1.52 1.70 1.75 1.73 1.73 1.72 1.79 1.90 1.88 1.90 2.02 2.01 1.89 1.99 2.15 2.31 2.51 2.61 2.37 2.30 2.27 2.10 2.07 2.01 2.03 2.21 2.23 2.08 1.95 1.98 2.02 1.96 1.93 1.78 1.53 1.45 1.48
1.11 1.28 1.50 1.57 1.63 1.69 1.81 1.96 2.05 1.99 1.96 1.98 2.04 2.00 2.02 2.06 2.05 1.97 1.98 2.01 2.10 2.18 2.41 2.61 2.60 2.69 2.44 2.39 2.28 2.17 2.11 2.06 2.21 2.09 1.95 2.13 2.14 2.11 2.03 1.70 1.57 1.58 1.41
1.39 1.52 1.62 1.80 1.91 1.96 1.93 2.04 2.07 2.11 2.15 2.15 2.19 2.14 2.11 2.14 2.14 2.12 2.09 2.08 2.16 2.14 2.18 2.27 2.39 2.65 2.62 2.62 2.43 2.41 2.42 2.39 2.44 2.32 2.20 2.29 2.46 2.48 2.33 1.97 1.82 1.71 1.57
1.74 1.82 1.84 1.90 2.00 2.12 2.26 2.29 2.29 2.29 2.25 2.39 2.37 2.27 2.26 2.28 2.11 2.22 2.41 2.38 2.45 2.27 2.19 2.15 2.13 2.35 2.42 2.43 2.20 2.31 2.50 2.53 2.53 2.46 2.42 2.48 2.52 2.63 2.33 2.08 1.93 1.89 1.79
2.20 2.33 2.44 2.50 2.55 2.61 2.64 2.66 2.71 2.67 2.61 2.53 2.41 2.43 2.42 2.21 2.35 2.41 2.32 2.36 2.54 2.54 2.42 2.35 2.21 2.14 2.12 2.16 2.20 2.25 2.35 2.34 2.36 2.39 2.34 2.37 2.43 2.53 2.62 2.46 2.21 2.03 1.85
2.34 2.45 2.59 2.70 2.82 2.92 2.93 2.92 2.80 2.74 2.66 2.53 2.53 2.57 2.52 2.55 2.51 2.28 2.13 2.14 2.20 2.29 2.36 2.34 2.07 1.92 2.10 2.02 2.18 2.20 2.06 1.98 1.96 2.05 2.06 2.09 2.48 2.75 3.00 2.70 2.47 2.27 1.99
2.45 2.52 2.59 2.64 2.74 2.89 3.05 2.98 2.82 2.75 2.69 2.64 2.59 2.48 2.41 2.33 2.33 2.10 2.08 1.98 1.93 1.87 1.97 2.08 2.03 1.93 1.96 2.03 1.98 1.78 1.63 1.62 1.64 1.54 1.57 1.81 2.19 2.69 2.97 2.95 2.89 2.65 2.33
2.20 2.36 2.35 2.48 2.69 2.79 2.83 2.84 2.88 2.82 2.63 2.48 2.36 2.30 2.25 2.30 2.46 2.21 2.09 1.91 1.91 1.77 1.75 1.75 1.79 1.69 1.79 1.86 1.77 1.58 1.45 1.41 1.44 1.44 1.42 1.58 1.83 2.15 2.52 2.70 2.61 2.41 2.05
2.19 2.37 2.51 2.61 2.75 2.81 2.86 2.96 2.96 2.90 2.85 2.80 2.64 2.49 2.39 2.36 2.51 2.25 2.08 1.90 1.91 1.86 1.85 1.84 1.93 1.71 1.62 1.54 1.48 1.48 1.31 1.24 1.35 1.32 1.29 1.32 1.41 1.66 2.06 2.15 2.15 2.17 1.95
2.22 2.30 2.41 2.55 2.71 2.93 3.13 3.08 3.03 2.96 2.85 2.65 2.46 2.32 2.27 2.27 2.25 2.03 1.89 1.69 1.69 1.74 1.64 1.58 1.63 1.65 1.44 1.28 1.26 1.25 1.17 1.21 1.28 1.23 1.15 1.14 1.25 1.37 1.53 1.80 1.93 1.91 1.82
2.30 2.37 2.42 2.56 2.60 2.69 2.83 2.80 2.75 2.74 2.71 2.64 2.58 2.49 2.39 2.25 2.04 1.80 1.65 1.54 1.56 1.57 1.66 1.67 1.72 1.75 1.48 1.32 1.18 1.06 1.09 1.06 1.06 1.12 1.09 1.05 1.09 1.18 1.38 1.64 1.90 1.94 1.83
2.28 2.40 2.54 2.60 2.62 2.71 2.84 2.85 2.76 2.66 2.58 2.47 2.39 2.21 2.18 2.21 2.12 1.87 1.61 1.51 1.51 1.46 1.65 1.95 1.96 1.90 1.68 1.40 1.28 1.27 1.17 1.03 1.04 1.05 1.04 1.00 1.04 1.19 1.44 1.72 1.94 2.11 2.04
2.24 2.29 2.42 2.55 2.65 2.78 2.79 2.67 2.53 2.35 2.25 2.19 2.10 1.99 1.97 2.02 1.92 1.84 1.71 1.62 1.59 1.53 1.60 1.85 2.00 2.01 1.89 1.69 1.59 1.49 1.26 1.16 1.21 1.19 1.20 1.25 1.34 1.47 1.62 1.74 1.93 2.07 2.12
2.19 2.24 2.22 2.26 2.34 2.45 2.50 2.44 2.30 2.16 2.05 1.98 1.87 1.85 1.84 1.83 1.85 1.85 1.69 1.57 1.54 1.59 1.72 1.93 2.07 2.17 2.17 2.09 1.98 1.87 1.72 1.55 1.41 1.36 1.42 1.43 1.48 1.57 1.62 1.76 1.97 2.06 2.00
2.21 2.09 2.01 1.93 1.92 1.95 1.94 1.99 2.11 1.99 1.97 1.84 1.73 1.66 1.61 1.66 1.68 1.63 1.53 1.45 1.50 1.63 1.69 1.80 2.03 2.21 2.28 2.35 2.37 2.25 2.02 1.83 1.68 1.65 1.60 1.58 1.61 1.62 1.67 1.82 2.03 2.13 2.00
2.10 1.96 1.85 1.79 1.79 1.73 1.69 1.70 1.81 1.86 1.81 1.73 1.72 1.60 1.47 1.51 1.47 1.43 1.42 1.40 1.44 1.51 1.54 1.65 1.75 1.85 2.03 2.24 2.34 2.31 2.09 1.97 1.99 1.95 1.85 1.81 1.83 1.83 1.84 1.94 2.12 2.24 2.19
1.93 1.98 1.84 1.72 1.77 1.78 1.74 1.71 1.73 1.78 1.78 1.69 1.68 1.64 1.41 1.29 1.27 1.29 1.33 1.28 1.18 1.20 1.28 1.43 1.59 1.74 1.90 2.15 2.31 2.33 2.27 2.18 2.19 2.22 2.17 2.10 2.08 2.03 1.95 1.90 2.03 2.15 2.19
1.76 1.79 1.80 1.79 1.77 1.78 1.79 1.71 1.65 1.63 1.65 1.57 1.52 1.59 1.53 1.36 1.28 1.30 1.32 1.20 1.12 1.13 1.22 1.26 1.32 1.49 1.69 1.94 2.18 2.34 2.34 2.22 2.15 2.19 2.16 2.09 2.07 2.08 1.98 1.89 1.95 2.13 2.21
1.67 1.82 1.74 1.74 1.75 1.71 1.76 1.77 1.72 1.72 1.68 1.59 1.51 1.53 1.54 1.43 1.32 1.42 1.48 1.44 1.35 1.31 1.32 1.32 1.41 1.55 1.70 1.92 2.12 2.23 2.27 2.24 2.19 2.17 2.12 2.05 2.02 2.01 1.88 1.82 1.84 1.92 1.96
1.53 1.59 1.67 1.54 1.56 1.63 1.61 1.65 1.68 1.70 1.66 1.58 1.48 1.49 1.46 1.33 1.41 1.50 1.60 1.63 1.55 1.46 1.42 1.43 1.46 1.55 1.72 1.91 2.04 2.15 2.18 2.20 2.22 2.20 2.15 2.05 2.01 2.01 1.96 1.92 1.90 1.91 1.91
1.52 1.42 1.43 1.46 1.59 1.64 1.67 1.69 1.73 1.70 1.67 1.65 1.64 1.65 1.62 1.40 1.47 1.55 1.59 1.67 1.70 1.70 1.64 1.63 1.61 1.62 1.68 1.82 1.99 2.11 2.12 2.10 2.13 2.17 2.16 2.09 2.06 2.06 2.10 2.10 2.05 2.02 2.01
1.59 1.55 1.51 1.50 1.61 1.74 1.76 1.79 1.83 1.79 1.77 1.76 1.72 1.69 1.68 1.61 1.62 1.70 1.74 1.78 1.79 1.76 1.72 1.69 1.66 1.68 1.72 1.75 1.83 1.93 1.98 1.96 1.91 1.95 2.05 2.02 1.96 1.95 1.99 2.01 1.99 1.99 1.97
1.46 1.54 1.55 1.53 1.56 1.59 1.62 1.63 1.64 1.63 1.65 1.65 1.68 1.75 1.77 1.77 1.81 1.85 1.79 1.73 1.68 1.64 1.64 1.61 1.59 1.59 1.63 1.69 1.70 1.66 1.70 1.76 1.71 1.69 1.76 1.84 1.85 1.84 1.87 1.87 1.91 1.96 2.02
1.30 1.45 1.52 1.50 1.47 1.49 1.47 1.41 1.39 1.46 1.57 1.67 1.71 1.74 1.79 1.80 1.79 1.73 1.65 1.56 1.49 1.51 1.54 1.52 1.49 1.42 1.39 1.41 1.43 1.43 1.58 1.63 1.59 1.55 1.54 1.61 1.66 1.70 1.74 1.76 1.82 1.93 2.07
1.27 1.38 1.44 1.45 1.45 1.48 1.51 1.46 1.39 1.42 1.52 1.57 1.61 1.60 1.61 1.62 1.62 1.57 1.49 1.43 1.40 1.39 1.42 1.43 1.37 1.26 1.22 1.22 1.23 1.26 1.27 1.23 1.31 1.43 1.44 1.44 1.51 1.59 1.64 1.67 1.70 1.81 1.92